1497236400.89,60267,19.19,74132.5,6.29,-23.79,-24.31,0,*7E
1497236402.12,60268,19.19,74132.0,6.29,-23.79,-24.25,0,*74
1497236403.36,60269,19.19,74134.8,6.27,-23.79,-24.31,0,*7E
1497236404.61,60270,19.13,74132.5,6.27,-23.79,-24.15,0,*70
1497236405.89,60271,19.13,74134.8,6.27,-23.95,-24.41,0,*72
1497236407.09,60272,19.19,74134.0,6.29,-23.89,-24.31,0,*75
1497236408.34,60273,19.19,74134.5,6.29,-23.65,-23.99,0,*73
1497236409.58,60274,19.19,74132.3,6.29,-23.65,-24.11,0,*73
1497236410.83,60275,19.19,74136.3,6.27,-23.79,-24.15,0,*75
1497236412.06,60276,19.19,74134.5,6.29,-23.79,-24.15,0,*78
1497236413.31,60277,19.19,74136.0,6.27,-23.59,-23.95,0,*7A
1497236414.53,60278,19.19,74134.5,6.29,-23.33,-23.75,0,*79
1497236415.79,60279,19.19,74136.5,6.27,-23.33,-23.75,0,*76
1497236417.04,60280,19.19,74132.0,6.29,-23.19,-23.65,0,*77
1497236418.26,60281,19.19,74136.3,6.29,-22.87,-23.49,0,*7E
1497236419.46,60282,19.19,74134.8,6.29,-22.63,-23.13,0,*78
1497236420.69,60283,19.19,74130.5,6.29,-22.67,-23.19,0,*77
1497236421.92,60284,19.19,74132.5,6.29,-22.97,-23.49,0,*7A
1497236423.12,60285,19.19,74136.3,6.29,-22.97,-23.43,0,*71
1497236424.33,60286,19.19,74140.3,6.29,-22.67,-22.97,0,*75
1497236425.55,60287,19.19,74138.3,6.31,-22.03,-22.57,0,*73
1497236426.78,60288,19.19,74138.3,6.35,-21.73,-22.11,0,*7E
1497236428.01,60289,19.13,74132.8,6.35,-21.93,-22.37,0,*75
1497236429.24,60290,19.19,74138.0,6.35,-21.77,-22.37,0,*77
1497236430.46,60291,19.19,74138.8,6.37,-22.37,-22.77,0,*77
1497236431.71,60292,19.19,74136.0,6.39,-22.31,-22.83,0,*77
1497236432.94,60293,19.19,74132.8,6.39,-22.37,-22.87,0,*74
1497236434.18,60294,19.19,74132.8,6.39,-22.53,-23.13,0,*7D
1497236435.43,60295,19.19,74134.3,6.39,-22.73,-23.13,0,*7E
1497236436.66,60296,19.19,74128.3,6.43,-22.93,-23.43,0,*7B
1497236437.9,60297,19.19,74128.5,6.45,-23.23,-23.69,0,*7E
1497236439.13,60298,19.19,74128.8,6.41,-23.29,-23.75,0,*72
1497236440.33,60299,19.19,74128.8,6.41,-23.43,-23.89,0,*7C
1497236441.52,60300,19.19,74126.0,6.41,-23.39,-23.79,0,*7F
1497236442.77,60301,19.19,74126.5,6.41,-23.53,-23.95,0,*70
1497236443.97,60302,19.19,74122.3,6.41,-23.43,-23.89,0,*7F
1497236445.22,60303,19.19,74120.5,6.39,-23.59,-24.11,0,*7C
1497236446.48,60304,19.19,74120.5,6.39,-23.75,-24.25,0,*72
1497236447.73,60305,19.19,74122.3,6.39,-23.79,-24.25,0,*7F
1497236449.01,60306,19.19,74126.5,6.39,-23.85,-24.41,0,*7D
1497236450.26,60307,19.19,74122.3,6.39,-23.85,-24.31,0,*7B
1497236451.52,60308,19.19,74118.0,6.39,-23.75,-24.25,0,*7E
1497236452.8,60309,19.19,74118.3,6.39,-23.65,-24.25,0,*7E
1497236454.07,60310,19.19,74120.5,6.39,-23.65,-24.15,0,*75
1497236455.32,60311,19.19,74122.8,6.37,-23.85,-24.21,0,*73
1497236456.55,60312,19.19,74130.0,6.37,-23.85,-24.31,0,*71
1497236457.77,60313,19.19,74128.8,6.37,-23.85,-24.31,0,*70
1497236458.97,60314,19.19,74128.0,6.37,-23.89,-24.47,0,*7A
1497236460.16,60315,19.19,74124.0,6.37,-23.89,-24.31,0,*7A
1497236461.38,60316,19.19,74124.0,6.37,-23.79,-24.15,0,*70
1497236462.62,60317,19.19,74122.5,6.37,-23.69,-24.15,0,*70
1497236463.86,60318,19.19,74122.5,6.37,-23.69,-24.21,0,*78
1497236465.08,60319,19.19,74120.8,6.37,-23.69,-24.31,0,*78
1497236466.3,60320,19.19,74124.8,6.37,-23.85,-24.31,0,*70
1497236467.55,60321,19.19,74128.0,6.35,-23.85,-24.35,0,*77
1497236468.78,60322,19.19,74128.3,6.35,-23.89,-24.35,0,*78
1497236470.02,60323,19.19,74126.5,6.35,-23.85,-24.35,0,*75
1497236471.27,60324,19.19,74124.3,6.35,-23.85,-24.35,0,*72
1497236472.55,60325,19.19,74132.8,6.31,-23.95,-24.41,0,*75
1497236473.77,60326,19.19,74132.3,6.31,-23.89,-24.35,0,*78
1497236475.0,60327,19.19,74136.3,6.31,-24.05,-24.51,0,*78
1497236476.25,60328,19.13,74128.0,6.31,-23.85,-24.35,0,*7A
1497236477.5,60329,19.19,74126.0,6.31,-23.85,-24.35,0,*7B
1497236478.78,60330,19.19,74126.0,6.31,-23.85,-24.25,0,*72
1497236480.03,60331,19.19,74130.0,6.31,-23.89,-24.25,0,*7F
1497236481.28,60332,19.19,74136.5,6.31,-23.95,-24.35,0,*70
1497236482.54,60333,19.19,74134.0,6.35,-23.85,-24.31,0,*70
1497236483.79,60334,19.19,74142.3,6.31,-24.11,-24.35,0,*7D
1497236485.04,60335,19.19,74142.5,6.31,-23.95,-24.51,0,*75
1497236486.3,60336,19.19,74140.0,6.31,-23.75,-24.21,0,*7F
1497236487.58,60337,19.19,74138.8,6.31,-23.85,-24.25,0,*75
1497236488.83,60338,19.13,74136.3,6.31,-23.85,-24.35,0,*7B
1497236490.06,60339,19.19,74132.5,6.35,-23.79,-24.31,0,*79
1497236491.28,60340,19.19,74134.0,6.31,-23.89,-24.35,0,*78
1497236492.51,60341,19.19,74130.3,6.31,-23.89,-24.35,0,*79
1497236493.73,60342,19.13,74132.0,6.31,-23.89,-24.35,0,*7A
1497236495.01,60343,19.19,74138.8,6.31,-23.95,-24.41,0,*75
1497236496.26,60344,19.19,74138.0,6.31,-24.05,-24.41,0,*7C
1497236497.52,60345,19.19,74136.3,6.31,-24.05,-24.41,0,*7D
1497236498.78,60346,19.19,74136.0,6.27,-23.95,-24.47,0,*71
1497236500.0,60347,19.19,74138.5,6.29,-23.95,-24.47,0,*7E
1497236501.2,60348,19.13,74130.8,6.29,-23.89,-24.31,0,*7D
1497236502.45,60349,19.19,74132.8,6.29,-23.95,-24.41,0,*76
1497236503.74,60350,19.19,74138.0,6.27,-23.99,-24.41,0,*7C
1497236505.02,60351,19.19,74138.8,6.27,-23.95,-24.41,0,*71
1497236506.24,60352,19.19,74138.3,6.29,-23.99,-24.47,0,*76
1497236507.47,60353,19.19,74140.0,6.29,-24.15,-24.47,0,*74
1497236508.7,60354,19.19,74136.8,6.27,-23.89,-24.31,0,*7E
1497236509.96,60355,19.19,74136.8,6.27,-23.75,-24.11,0,*7E
1497236511.18,60356,19.19,74136.0,6.29,-23.79,-24.11,0,*7F
1497236512.44,60357,19.13,74136.5,6.27,-23.79,-24.25,0,*77
1497236513.72,60358,19.19,74136.3,6.27,-23.95,-24.25,0,*7A
1497236514.98,60359,19.19,74140.0,6.29,-23.95,-24.25,0,*75
1497236516.21,60360,19.19,74136.0,6.27,-23.89,-24.31,0,*79
1497236517.47,60361,19.19,74132.3,6.27,-23.79,-24.25,0,*72
1497236518.73,60362,19.13,74132.8,6.27,-23.79,-24.25,0,*71
1497236519.99,60363,19.19,74138.0,6.27,-23.75,-24.41,0,*7E
1497236521.27,60364,19.19,74136.0,6.27,-23.99,-24.41,0,*7B
1497236522.53,60365,19.19,74132.0,6.27,-23.95,-24.31,0,*71
1497236523.75,60366,19.19,74130.5,6.29,-23.89,-24.41,0,*76
1497236524.98,60367,19.19,74136.5,6.27,-23.89,-24.31,0,*7E
1497236526.26,60368,19.19,74134.3,6.27,-23.95,-24.41,0,*7B
1497236527.52,60369,19.19,74138.8,6.27,-23.95,-24.31,0,*7D
1497236528.75,60370,19.19,74142.8,6.25,-23.99,-24.47,0,*7A
1497236530.01,60371,19.19,74140.3,6.27,-23.79,-24.15,0,*70
1497236531.28,60372,19.19,74136.0,6.27,-23.65,-24.11,0,*7A
1497236532.51,60373,19.19,74140.0,6.25,-23.85,-24.35,0,*71
1497236533.77,60374,19.19,74132.8,6.25,-23.69,-24.21,0,*71
1497236534.97,60375,19.13,74130.5,6.25,-23.79,-24.35,0,*74
1497236536.2,60376,19.19,74134.5,6.25,-23.85,-24.35,0,*74
1497236537.43,60377,19.13,74128.3,6.25,-23.95,-24.47,0,*71
1497236538.69,60378,19.19,74130.3,6.23,-23.99,-24.47,0,*74
1497236539.92,60379,19.13,74128.5,6.25,-23.99,-24.47,0,*73
1497236541.16,60380,19.19,74134.0,6.25,-23.95,-24.51,0,*7E
1497236542.37,60381,19.19,74132.8,6.25,-24.05,-24.51,0,*71
1497236543.6,60382,19.19,74138.3,6.25,-23.99,-24.47,0,*77
1497236544.86,60383,19.19,74138.0,6.23,-23.99,-24.47,0,*70
1497236546.12,60384,19.19,74134.8,6.23,-23.95,-24.47,0,*7B
1497236547.35,60385,19.13,74132.5,6.25,-23.95,-24.35,0,*79
1497236548.6,60386,19.19,74134.3,6.23,-23.95,-24.35,0,*7C
1497236549.88,60387,19.19,74134.8,6.23,-23.85,-24.21,0,*79
1497236551.12,60388,19.13,74130.8,6.25,-23.85,-24.31,0,*71
1497236552.37,60389,19.19,74130.8,6.23,-23.85,-24.31,0,*76
1497236553.6,60390,19.13,74126.0,6.25,-23.95,-24.31,0,*79
1497236554.84,60391,19.19,74130.3,6.25,-23.95,-24.31,0,*78
1497236556.09,60392,19.19,74130.3,6.23,-23.99,-24.31,0,*71
1497236557.35,60393,19.19,74130.3,6.23,-23.95,-24.35,0,*78
1497236558.63,60394,19.19,74132.3,6.23,-23.95,-24.21,0,*7A
1497236559.89,60395,19.19,74134.5,6.23,-23.99,-24.35,0,*72
1497236561.14,60396,19.13,74130.8,6.23,-23.99,-24.35,0,*71
1497236562.4,60397,19.13,74128.3,6.23,-23.99,-24.47,0,*75
1497236563.65,60398,19.19,74140.3,6.23,-23.99,-24.47,0,*7A
1497236564.89,60399,19.19,74138.5,6.25,-23.79,-24.21,0,*73
1497236566.16,60400,19.19,74138.3,6.23,-23.79,-24.21,0,*72
1497236567.39,60401,19.19,74138.8,6.23,-23.79,-24.31,0,*72
1497236568.6,60402,19.19,74138.8,6.25,-23.79,-24.05,0,*70
1497236569.85,60403,19.19,74136.5,6.23,-23.85,-24.31,0,*73
1497236571.11,60404,19.13,74134.0,6.23,-23.95,-24.35,0,*71
1497236572.36,60405,19.19,74132.5,6.23,-23.99,-24.47,0,*79
1497236573.62,60406,19.19,74132.0,6.23,-23.99,-24.47,0,*7A
1497236574.88,60407,19.13,74128.3,6.23,-23.99,-24.47,0,*7B
1497236576.13,60408,19.19,74138.3,6.23,-23.99,-24.51,0,*73
1497236577.34,60409,19.13,74136.3,6.21,-24.05,-24.57,0,*74
1497236578.56,60410,19.13,74134.8,6.21,-23.99,-24.57,0,*7E
1497236579.79,60411,19.19,74132.3,6.21,-23.89,-24.41,0,*79
1497236581.01,60412,19.19,74128.5,6.21,-23.99,-24.51,0,*7A
1497236582.27,60413,19.19,74130.5,6.19,-23.85,-24.25,0,*7E
1497236583.5,60414,19.19,74136.3,6.21,-23.89,-24.41,0,*7C
1497236584.7,60415,19.19,74134.8,6.21,-24.05,-24.51,0,*7F
1497236585.93,60416,19.19,74138.0,6.21,-23.99,-24.51,0,*7E
1497236587.16,60417,19.19,74140.5,6.19,-23.99,-24.35,0,*76
1497236588.36,60418,19.19,74136.8,6.21,-24.05,-24.51,0,*72
1497236589.59,60419,19.19,74138.3,6.19,-23.99,-24.51,0,*7A
1497236590.85,60420,19.19,74138.5,6.19,-23.99,-24.41,0,*71
1497236592.08,60421,19.19,74138.3,6.21,-23.89,-24.25,0,*78
1497236593.27,60422,19.19,74136.8,6.21,-23.89,-24.35,0,*7A
1497236594.5,60423,19.19,74134.8,6.21,-23.99,-24.51,0,*78
1497236595.71,60424,19.19,74138.8,6.21,-24.05,-24.51,0,*7D
1497236596.96,60425,19.13,74136.3,6.19,-23.99,-24.41,0,*74
1497236598.22,60426,19.19,74136.0,6.19,-23.99,-24.41,0,*77
1497236599.45,60427,19.19,74134.3,6.19,-23.89,-24.25,0,*75
1497236600.65,60428,19.19,74136.8,6.19,-23.89,-24.35,0,*7B
1497236601.86,60429,19.19,74138.5,6.19,-24.05,-24.51,0,*7B
1497236603.07,60430,19.13,74134.8,6.19,-24.05,-24.51,0,*73
1497236604.33,60431,19.19,74138.8,6.17,-24.25,-24.57,0,*78
1497236605.58,60432,19.19,74134.5,6.17,-24.15,-24.57,0,*78
1497236606.84,60433,19.19,74136.3,6.17,-24.11,-24.57,0,*7D
1497236608.06,60434,19.19,74138.0,6.15,-24.11,-24.35,0,*7C
1497236609.32,60435,19.19,74140.3,6.17,-23.95,-24.47,0,*71
1497236610.57,60436,19.19,74142.0,6.17,-24.05,-24.41,0,*7A
1497236611.86,60437,19.13,74132.8,6.17,-23.95,-24.25,0,*77
1497236613.08,60438,19.13,74128.8,6.15,-23.95,-24.35,0,*7B
1497236614.34,60439,19.13,74126.8,6.17,-23.79,-24.25,0,*7B
1497236615.62,60440,19.13,74126.5,6.17,-23.95,-24.41,0,*75
1497236616.85,60441,19.13,74128.5,6.17,-23.89,-24.31,0,*7E
1497236618.08,60442,19.19,74132.0,6.17,-23.89,-24.31,0,*7D
1497236619.33,60443,19.19,74134.8,6.15,-23.95,-24.21,0,*72
1497236620.57,60444,19.19,74134.8,6.15,-23.79,-24.21,0,*77
1497236621.79,60445,19.19,74132.3,6.15,-23.85,-24.35,0,*70
1497236623.05,60446,19.19,74134.0,6.17,-23.89,-24.41,0,*7E
1497236624.27,60447,19.19,74134.3,6.15,-23.95,-24.35,0,*73
1497236625.53,60448,19.19,74132.5,6.17,-23.99,-24.51,0,*70
1497236626.75,60449,19.19,74134.5,6.15,-23.99,-24.35,0,*71
1497236628.0,60450,19.19,74132.5,6.17,-23.79,-24.15,0,*77
1497236629.24,60451,19.19,74128.5,6.15,-23.79,-24.21,0,*73
1497236630.46,60452,19.19,74130.3,6.15,-23.99,-24.47,0,*7E
1497236631.69,60453,19.19,74120.5,6.15,-23.95,-24.35,0,*76
1497236632.95,60454,19.19,74118.8,6.17,-23.79,-24.25,0,*70
1497236634.18,60455,19.19,74126.8,6.15,-23.85,-24.31,0,*75
1497236635.38,60456,19.19,74130.8,6.15,-23.79,-24.31,0,*75
1497236636.58,60457,19.19,74132.0,6.15,-23.39,-23.79,0,*7B
1497236637.85,60458,19.19,74128.8,6.17,-23.33,-23.65,0,*71
1497236639.1,60459,19.19,74128.5,6.17,-23.49,-23.89,0,*7F
1497236640.35,60460,19.13,74124.5,6.17,-23.49,-23.89,0,*75
1497236641.59,60461,19.19,74124.5,6.15,-23.69,-23.99,0,*75
1497236642.84,60462,19.13,74126.0,6.17,-23.89,-24.15,0,*79
1497236644.09,60463,19.19,74130.8,6.17,-23.89,-24.15,0,*78
1497236645.34,60464,19.19,74128.0,6.17,-23.89,-24.15,0,*7F
1497236646.59,60465,19.19,74128.5,6.15,-23.85,-24.15,0,*70
1497236647.84,60466,19.19,74128.3,6.17,-23.79,-24.15,0,*72
1497236649.09,60467,19.19,74130.5,6.15,-23.85,-24.21,0,*75
1497236650.35,60468,19.19,74132.3,6.15,-23.95,-24.21,0,*7B
1497236651.58,60469,19.13,74132.5,6.19,-23.89,-24.25,0,*7F
1497236652.81,60470,19.13,74132.0,6.15,-23.99,-24.35,0,*7B
1497236654.09,60471,19.19,74138.0,6.17,-23.95,-24.25,0,*75
1497236655.32,60472,19.13,74134.5,6.15,-23.99,-24.35,0,*79
1497236656.54,60473,19.19,74136.5,6.15,-23.99,-24.35,0,*78
1497236657.79,60474,19.13,74136.3,6.15,-23.69,-24.21,0,*75
1497236659.02,60475,19.19,74134.0,6.15,-23.95,-24.47,0,*77
1497236660.25,60476,19.19,74132.3,6.15,-23.95,-24.35,0,*71
1497236661.47,60477,19.19,74132.5,6.15,-23.95,-24.35,0,*70
1497236662.7,60478,19.19,74134.0,6.15,-23.95,-24.35,0,*7F
1497236663.95,60479,19.13,74134.5,6.13,-23.99,-24.47,0,*71
1497236665.23,60480,19.19,74142.8,6.13,-23.95,-24.21,0,*7B
1497236666.5,60481,19.19,74140.3,6.13,-23.85,-24.15,0,*7C
1497236667.75,60482,19.19,74138.5,6.13,-23.79,-24.11,0,*78
1497236669.0,60483,19.19,74134.8,6.13,-23.33,-23.79,0,*7E
1497236670.22,60484,19.13,74136.8,6.13,-23.39,-23.79,0,*73
1497236671.46,60485,19.19,74134.8,6.15,-23.19,-23.69,0,*77
1497236672.72,60486,19.19,74134.8,6.17,-23.13,-23.65,0,*70
1497236673.99,60487,19.19,74134.3,6.13,-23.23,-23.69,0,*7A
1497236675.27,60488,19.19,74134.8,6.13,-23.53,-23.85,0,*70
1497236676.51,60489,19.19,74138.8,6.13,-23.79,-24.11,0,*73
1497236677.76,60490,19.19,74142.0,6.15,-23.65,-23.95,0,*7B
1497236679.01,60491,19.19,74142.0,6.15,-23.19,-23.69,0,*72
1497236680.23,60492,19.13,74132.8,6.15,-23.23,-23.79,0,*79
1497236681.48,60493,19.19,74136.0,6.15,-23.19,-23.69,0,*70
1497236682.71,60494,19.13,74134.0,6.15,-23.19,-23.79,0,*76
1497236683.99,60495,19.19,74128.0,6.17,-23.03,-23.49,0,*7D
1497236685.21,60496,19.19,74128.8,6.15,-23.39,-23.95,0,*74
1497236686.46,60497,19.19,74124.3,6.17,-23.49,-23.89,0,*7D
1497236687.71,60498,19.19,74126.8,6.15,-23.53,-23.99,0,*7A
1497236688.98,60499,19.19,74134.8,6.17,-23.49,-23.95,0,*7E
1497236690.21,60500,19.19,74132.3,6.15,-23.49,-23.79,0,*7F
1497236691.44,60501,19.19,74132.0,6.17,-23.59,-24.05,0,*71
1497236692.7,60502,19.19,74124.8,6.17,-23.79,-24.25,0,*72
1497236693.95,60503,19.13,74130.0,6.17,-23.85,-24.31,0,*75
1497236695.18,60504,19.19,74132.3,6.15,-23.95,-24.31,0,*71
1497236696.41,60505,19.19,74134.8,6.15,-23.99,-24.31,0,*7C
1497236697.66,60506,19.19,74134.0,6.17,-23.79,-24.15,0,*75
1497236698.92,60507,19.19,74128.0,6.15,-23.85,-24.21,0,*72
1497236700.16,60508,19.13,74134.8,6.15,-23.65,-23.95,0,*7B
1497236701.4,60509,19.19,74134.0,6.15,-23.69,-23.99,0,*7A
1497236702.63,60510,19.19,74130.5,6.15,-23.79,-24.15,0,*70
1497236703.87,60511,19.19,74132.5,6.15,-23.69,-23.99,0,*73
1497236705.12,60512,19.13,74136.3,6.15,-23.65,-23.99,0,*7C
1497236706.35,60513,19.19,74142.0,6.15,-23.49,-23.79,0,*7D
1497236707.59,60514,19.13,74138.3,6.15,-23.65,-23.95,0,*76
1497236708.83,60515,19.19,74138.8,6.15,-23.69,-24.11,0,*70
1497236710.09,60516,19.13,74130.8,6.15,-23.85,-24.21,0,*72
1497236711.35,60517,19.19,74132.5,6.15,-23.85,-24.21,0,*73
1497236712.58,60518,19.19,74134.5,6.15,-23.79,-24.21,0,*7F
1497236713.81,60519,19.13,74132.5,6.15,-23.85,-24.31,0,*7C
1497236715.04,60520,19.19,74134.8,6.15,-23.79,-24.21,0,*74
1497236716.3,60521,19.13,74130.8,6.13,-23.79,-24.21,0,*73
1497236717.55,60522,19.19,74134.8,6.13,-23.85,-24.31,0,*72
1497236718.8,60523,19.19,74128.3,6.13,-23.85,-24.31,0,*73
1497236720.05,60524,19.13,74124.0,6.13,-23.95,-24.47,0,*74
1497236721.31,60525,19.13,74134.0,6.13,-23.99,-24.47,0,*79
1497236722.56,60526,19.19,74132.0,6.13,-23.95,-24.35,0,*73
1497236723.8,60527,19.19,74138.3,6.13,-23.95,-24.35,0,*72
1497236725.07,60528,19.13,74134.0,6.13,-23.69,-24.11,0,*78
1497236726.34,60529,19.13,74132.8,6.13,-23.65,-24.15,0,*71
1497236727.57,60530,19.19,74134.3,6.13,-23.79,-24.31,0,*72
1497236728.8,60531,19.13,74130.8,6.09,-24.05,-24.35,0,*70
1497236730.05,60532,19.13,74130.8,6.09,-23.99,-24.35,0,*71
1497236731.34,60533,19.19,74136.8,6.09,-23.85,-24.21,0,*78
1497236732.59,60534,19.19,74142.0,6.13,-23.79,-24.11,0,*74
1497236733.87,60535,19.19,74140.3,6.09,-23.85,-24.21,0,*7E
1497236735.13,60536,19.13,74134.5,6.09,-23.59,-23.99,0,*78
1497236736.41,60537,19.19,74134.8,6.09,-23.29,-23.69,0,*71
1497236737.68,60538,19.19,74132.3,6.09,-23.23,-23.69,0,*74
1497236738.95,60539,19.19,74138.8,6.09,-23.43,-23.85,0,*71
1497236740.18,60540,19.13,74132.0,6.09,-23.59,-24.05,0,*7B
1497236741.43,60541,19.19,74134.8,6.09,-23.69,-24.05,0,*79
1497236742.68,60542,19.19,74134.8,6.09,-23.69,-24.05,0,*7A
1497236743.93,60543,19.19,74134.8,6.09,-23.69,-24.05,0,*7B
1497236745.2,60544,19.19,74136.0,6.09,-23.75,-24.21,0,*77
1497236746.42,60545,19.13,74132.0,6.09,-23.39,-23.89,0,*7B
1497236747.66,60546,19.19,74132.8,6.09,-23.43,-23.89,0,*75
1497236748.91,60547,19.19,74124.3,6.09,-23.75,-24.15,0,*73
1497236750.18,60548,19.13,74128.5,6.09,-23.75,-24.21,0,*7B
1497236751.45,60549,19.13,74128.0,6.13,-23.69,-24.15,0,*7B
1497236752.72,60550,19.13,74130.0,6.13,-23.65,-24.11,0,*7B
1497236753.98,60551,19.19,74136.8,6.09,-23.89,-24.21,0,*70
1497236755.24,60552,19.13,74134.5,6.09,-23.75,-24.15,0,*77
1497236756.49,60553,19.13,74134.5,6.09,-23.89,-24.15,0,*75
1497236757.74,60554,19.19,74134.0,6.09,-23.59,-23.99,0,*7C
1497236758.95,60555,19.13,74130.3,6.07,-23.43,-23.89,0,*79
1497236760.16,60556,19.19,74134.0,6.07,-23.59,-24.05,0,*72
1497236761.39,60557,19.19,74132.5,6.07,-23.69,-24.05,0,*70
1497236762.62,60558,19.19,74134.0,6.07,-23.75,-24.15,0,*73
1497236763.88,60559,19.13,74132.3,6.07,-23.23,-23.69,0,*7D
1497236765.08,60560,19.19,74130.8,6.07,-23.43,-23.89,0,*7F
1497236766.32,60561,19.19,74134.0,6.07,-23.53,-24.05,0,*7C
1497236767.56,60562,19.13,74134.8,6.07,-23.43,-23.85,0,*71
1497236768.8,60563,19.13,74132.8,6.09,-22.93,-23.39,0,*75
1497236770.03,60564,19.19,74132.0,6.09,-23.13,-23.59,0,*7D
1497236771.28,60565,19.13,74130.8,6.09,-22.87,-23.29,0,*77
1497236772.56,60566,19.13,74128.8,6.09,-23.03,-23.29,0,*79
1497236773.81,60567,19.13,74128.3,6.13,-23.09,-23.53,0,*74
1497236775.06,60568,19.19,74130.8,6.13,-23.23,-23.75,0,*77
1497236776.33,60569,19.19,74128.5,6.13,-23.23,-23.69,0,*7B
1497236777.59,60570,19.19,74130.5,6.09,-23.59,-23.99,0,*7A
1497236778.86,60571,19.19,74130.8,6.09,-23.69,-23.99,0,*78
1497236780.14,60572,19.19,74130.5,6.09,-23.53,-23.99,0,*72
1497236781.4,60573,19.19,74130.3,6.09,-23.59,-23.99,0,*79
1497236782.67,60574,19.19,74128.0,6.13,-23.49,-23.95,0,*78
1497236783.93,60575,19.13,74124.3,6.13,-23.65,-24.15,0,*78
1497236785.18,60576,19.19,74126.8,6.09,-23.69,-24.05,0,*7D
1497236786.44,60577,19.19,74134.5,6.09,-23.69,-24.05,0,*7C
1497236787.7,60578,19.19,74130.5,6.09,-23.53,-24.05,0,*7A
1497236788.98,60579,19.19,74128.5,6.09,-23.69,-24.21,0,*74
1497236790.24,60580,19.19,74126.8,6.07,-23.53,-23.85,0,*7C
1497236791.45,60581,19.19,74126.5,6.07,-23.43,-23.89,0,*70
1497236792.68,60582,19.19,74126.8,6.09,-23.59,-24.05,0,*75
1497236793.91,60583,19.19,74128.0,6.07,-23.69,-24.05,0,*79
1497236795.17,60584,19.13,74126.3,6.07,-23.53,-23.85,0,*78
1497236796.39,60585,19.19,74128.5,6.07,-23.75,-24.05,0,*72
1497236797.6,60586,19.13,74128.0,6.07,-23.75,-24.05,0,*71
1497236798.83,60587,19.19,74130.0,6.07,-23.39,-23.85,0,*77
1497236800.09,60588,19.19,74126.5,6.09,-23.53,-23.89,0,*76
1497236801.34,60589,19.19,74124.8,6.09,-23.53,-23.89,0,*77
1497236802.58,60590,19.19,74132.3,6.09,-23.59,-24.05,0,*76
1497236803.83,60591,19.19,74130.8,6.09,-23.53,-23.89,0,*7E
1497236805.07,60592,19.19,74128.5,6.09,-23.43,-23.89,0,*7C
1497236806.3,60593,19.19,74124.8,6.09,-23.59,-24.05,0,*75
1497236807.55,60594,19.19,74122.3,6.09,-23.59,-24.15,0,*73
1497236808.78,60595,19.19,74126.8,6.07,-23.69,-24.05,0,*7E
1497236810.02,60596,19.19,74126.5,6.07,-23.75,-24.25,0,*72
1497236811.26,60597,19.19,74128.3,6.07,-23.75,-24.15,0,*70
1497236812.5,60598,19.19,74130.0,6.07,-23.69,-24.15,0,*72
1497236813.74,60599,19.19,74130.3,6.07,-23.59,-23.99,0,*73
1497236814.97,60600,19.13,74126.3,6.07,-23.59,-23.99,0,*70
1497236816.17,60601,19.13,74126.3,6.07,-23.59,-23.89,0,*70
1497236817.38,60602,19.19,74132.0,6.07,-23.43,-23.89,0,*78
1497236818.63,60603,19.19,74132.5,6.07,-23.43,-23.85,0,*75
1497236819.83,60604,19.19,74134.0,6.07,-23.59,-23.89,0,*75
1497236821.04,60605,19.19,74132.3,6.07,-23.13,-23.59,0,*77
1497236822.28,60606,19.19,74134.0,6.07,-23.03,-23.43,0,*7E
1497236823.51,60607,19.19,74130.5,6.07,-23.13,-23.69,0,*76
1497236824.79,60608,19.19,74130.5,6.09,-23.29,-23.85,0,*7C
1497236826.05,60609,19.13,74132.8,6.09,-23.23,-23.75,0,*78
1497236827.31,60610,19.19,74132.5,6.09,-23.03,-23.39,0,*7A
1497236828.56,60611,19.19,74130.0,6.09,-23.13,-23.53,0,*76
1497236829.79,60612,19.13,74130.5,6.09,-23.13,-23.59,0,*7F
1497236831.05,60613,19.19,74128.0,6.09,-23.23,-23.75,0,*73
1497236832.3,60614,19.19,74126.0,6.13,-23.09,-23.65,0,*76
1497236833.56,60615,19.19,74124.8,6.09,-23.13,-23.69,0,*7B
1497236834.84,60616,19.19,74118.5,6.09,-23.29,-23.85,0,*73
1497236836.08,60617,19.19,74118.3,6.13,-23.39,-23.99,0,*75
1497236837.31,60618,19.19,74124.0,6.09,-23.39,-23.89,0,*70
1497236838.53,60619,19.13,74120.0,6.09,-23.39,-24.05,0,*72
1497236839.79,60620,19.19,74130.8,6.09,-23.59,-23.99,0,*7C
1497236841.06,60621,19.19,74130.8,6.13,-23.65,-23.99,0,*79
1497236842.32,60622,19.19,74136.5,6.09,-23.59,-23.99,0,*7E
1497236843.6,60623,19.19,74130.5,6.09,-23.53,-23.99,0,*75
1497236844.86,60624,19.13,74124.5,6.09,-23.43,-23.85,0,*7E
1497236846.1,60625,19.13,74126.3,6.09,-23.43,-24.05,0,*70
1497236847.38,60626,19.19,74130.3,6.09,-23.29,-23.85,0,*70
1497236848.64,60627,19.13,74126.5,6.09,-23.29,-23.75,0,*7E
1497236849.9,60628,19.19,74128.0,6.09,-23.23,-23.75,0,*7B
1497236851.15,60629,19.13,74122.3,6.13,-23.39,-23.85,0,*75
1497236852.43,60630,19.19,74128.5,6.09,-23.53,-23.99,0,*77
1497236853.7,60631,19.13,74122.5,6.13,-23.23,-23.85,0,*77
1497236854.94,60632,19.13,74122.0,6.09,-23.43,-23.89,0,*75
1497236856.21,60633,19.19,74124.8,6.13,-23.49,-23.95,0,*78
1497236857.46,60634,19.19,74126.8,6.09,-23.53,-23.89,0,*72
1497236858.74,60635,19.13,74122.0,6.13,-23.53,-23.95,0,*75
1497236859.99,60636,19.19,74128.5,6.09,-23.69,-24.05,0,*7A
1497236861.25,60637,19.13,74126.3,6.09,-23.75,-24.21,0,*70
1497236862.5,60638,19.19,74128.5,6.13,-23.79,-24.15,0,*7F
1497236863.77,60639,19.13,74128.0,6.09,-23.69,-24.15,0,*74
1497236865.02,60640,19.19,74126.0,6.09,-23.59,-24.15,0,*79
1497236866.28,60641,19.19,74122.0,6.09,-23.53,-23.89,0,*70
1497236867.55,60642,19.13,74116.3,6.09,-23.75,-24.21,0,*72
1497236868.81,60643,19.19,74122.3,6.09,-23.75,-24.15,0,*74
1497236870.08,60644,19.19,74120.8,6.09,-23.69,-24.15,0,*7E
1497236871.34,60645,19.19,74124.0,6.09,-23.75,-24.25,0,*71
1497236872.59,60646,19.19,74136.5,6.13,-23.79,-24.11,0,*72
1497236873.85,60647,19.13,74136.5,6.09,-23.43,-23.85,0,*7B
1497236875.08,60648,19.19,74138.3,6.09,-23.43,-23.89,0,*78
1497236876.34,60649,19.19,74128.8,6.09,-23.23,-23.75,0,*7C
1497236877.61,60650,19.19,74128.8,6.09,-23.43,-23.85,0,*7D
1497236878.84,60651,19.19,74128.0,6.09,-23.43,-23.89,0,*70
1497236880.07,60652,19.19,74124.5,6.09,-23.43,-23.89,0,*73
1497236881.35,60653,19.19,74128.8,6.13,-23.53,-23.99,0,*79
1497236882.62,60654,19.19,74128.5,6.13,-23.65,-23.99,0,*7B
1497236883.86,60655,19.19,74130.5,6.09,-23.75,-24.05,0,*72
1497236885.1,60656,19.19,74130.8,6.13,-23.79,-24.11,0,*73
1497236886.37,60657,19.13,74126.5,6.09,-23.75,-24.21,0,*76
1497236887.66,60658,19.19,74132.3,6.09,-23.85,-24.21,0,*76
1497236888.95,60659,19.19,74138.8,6.09,-23.85,-24.21,0,*77
1497236890.21,60660,19.19,74134.5,6.09,-23.75,-23.99,0,*76
1497236891.46,60661,19.19,74132.8,6.09,-23.75,-24.15,0,*74
1497236892.73,60662,19.19,74132.3,6.09,-23.89,-24.21,0,*73
1497236893.98,60663,19.13,74132.5,6.09,-23.89,-24.25,0,*76
1497236895.21,60664,19.19,74134.3,6.09,-23.89,-24.35,0,*70
1497236896.47,60665,19.13,74130.8,6.09,-23.89,-24.25,0,*70
1497236897.76,60666,19.19,74132.8,6.09,-23.85,-24.21,0,*7B
1497236899.05,60667,19.13,74130.0,6.09,-23.85,-24.21,0,*7A
1497236900.29,60668,19.13,74130.5,6.07,-23.75,-24.21,0,*74
1497236901.52,60669,19.19,74130.5,6.07,-23.75,-24.15,0,*72
1497236902.8,60670,19.19,74132.5,6.05,-23.95,-24.41,0,*77
1497236904.07,60671,19.13,74134.0,6.07,-23.85,-24.25,0,*77
1497236905.29,60672,19.19,74132.8,6.07,-23.85,-24.35,0,*75
1497236906.53,60673,19.19,74132.3,6.07,-23.89,-24.25,0,*79